Temp
-1 -2 -1 -1 -1 -1 -0 -0 0 1 1 1 2 2 4 5 5 6 6 6 7 7 7 6 6 6 6 5 5 5 4 4 4 4 5 5 5 6 5 5 5 5 5 5
-2 -1 -1 -1 -1 -1 -1 -1 0 1 1 0 1 2 3 5 6 5 5 6 6 6 6 6 6 5 5 5 5 5 5 4 4 4 4 4 4 4 5 4 4 5 5 5
-2 -1 -1 -1 -1 -1 -1 -1 0 0 0 0 1 2 4 6 5 6 6 6 6 6 7 7 6 6 5 5 5 5 5 5 5 5 5 4 4 4 4 4 4 4 5 5
-2 -1 -1 -1 -1 -1 -1 0 0 -0 -0 -0 1 -1 4 6 6 5 6 6 6 6 5 6 6 6 6 6 5 5 5 5 5 5 5 5 4 4 4 4 4 4 4 4
-2 -2 -2 -1 -1 -1 -1 -1 -1 -1 -1 -1 0 -1 4 5 5 5 5 5 5 5 5 6 6 5 5 5 5 5 5 5 4 4 4 4 4 4 4 4 4 4 4 4
-2 -2 -2 -2 -1 -1 -2 -1 -1 -1 -1 -4 -2 -1 5 5 4 4 4 4 4 4 4 5 5 5 4 4 4 4 4 4 3 3 3 3 3 3 3 3 3 3 4 3
-3 -3 -2 -2 -2 -2 -2 -2 -3 -4 -5 -5 -3 -2 4 3 4 4 4 4 4 4 4 4 4 4 3 3 3 3 3 3 2 3 3 2 2 2 2 2 2 3 3 3
-2 -2 -3 -3 -2 -1 -2 -2 -2 -3 -5 -5 -3 -3 3 3 3 3 3 3 3 3 3 3 3 3 3 3 3 3 3 2 2 1 1 1 2 2 2 2 2 2 2 2
-2 -3 -3 -3 -3 -2 -3 -3 -2 -2 -5 -6 -2 1 2 3 2 2 2 1 1 1 2 2 2 2 2 2 2 2 2 2 1 1 1 1 1 1 1 2 2 2 2 2
-2 -2 -3 -3 -3 -3 -3 -3 -3 -2 -7 -5 -3 -2 2 2 2 1 1 1 1 1 1 1 2 2 2 2 2 1 1 1 1 1 1 1 1 1 1 1 2 2 2 1
-2 -2 -4 -4 -3 -3 -3 -3 -3 -2 -3 -7 -6 0 1 2 1 0 -1 -0 -0 -0 0 1 2 1 1 1 1 1 -1 -0 -0 -1 -1 -0 -0 0 1 1 1 1 2 2
-2 -2 -4 -4 -4 -4 -4 -3 -3 -2 -5 -4 -5 -1 1 1 -0 -1 -0 0 0 -1 -1 -1 -0 0 1 1 0 -0 -0 -1 -2 -2 -2 -1 -1 -0 1 1 0 1 1 2
-3 -3 -3 -4 -4 -4 -4 -4 -4 -3 -4 -4 -5 -0 1 -0 -1 -1 -1 -0 -0 0 -0 -0 -0 -1 -2 -1 0 0 -1 -2 -3 -2 -2 -2 -1 -1 0 0 0 0 1 1
-3 -3 -3 -4 -3 -3 -4 -3 -3 -4 -4 -4 -3 1 0 -1 -1 -0 -0 0 0 -0 -1 -2 -2 -2 -1 -1 -1 -2 -3 -4 -3 -3 -3 -2 -1 -1 -1 -0 -0 0 0 0
-4 -4 -3 -3 -3 -3 -3 -3 -3 -4 -3 -3 -1 -1 -1 -1 -1 -0 -1 -1 -2 -2 -2 -2 -2 -0 -1 -2 -2 -3 -3 -3 -3 -3 -4 -3 -3 -2 -1 -1 -0 -0 -0 -0
-4 -4 -4 -3 -3 -3 -3 -3 -3 -3 -3 -3 -2 -1 -1 -0 -1 -1 -2 -2 -1 -2 -1 -3 -3 -1 -0 -1 -2 -3 -3 -3 -3 -3 -3 -2 -1 -1 -1 -1 -1 -1 -1 -1
-4 -4 -4 -3 -3 -3 -2 -1 -1 -1 -1 -1 -2 -1 -1 -0 -1 -1 -2 -2 -0 -0 -1 -2 -4 -3 -2 -2 -3 -3 -3 -3 -3 -3 -3 -2 -2 -1 -0 -1 -2 -2 -1 -2
-4 -4 -4 -4 -3 -6 -1 -1 -1 -1 -1 -2 -1 -1 -1 -0 -0 -1 -1 -0 0 -0 -2 -3 -3 -4 -3 -4 -4 -4 -4 -4 -4 -3 -3 -3 -3 -3 -2 -2 -1 -1 -2 -2
-4 -4 -4 -5 -5 -2 -0 -1 -2 -1 -1 -1 -1 -1 -1 -0 0 -1 -0 -1 -0 0 -1 -2 -2 -3 -4 -4 -4 -4 -3 -3 -3 -3 -3 -3 -2 -2 -3 -2 -2 -2 -2 -2
-4 -4 -4 -4 -4 -4 -2 -2 -2 -1 -1 -1 -1 -1 -0 -0 0 -0 -0 -1 -0 -0 0 0 -1 -2 -2 -3 -2 -3 -3 -3 -3 -3 -3 -3 -3 -3 -3 -2 -2 -3 -3 -3
-4 -4 -4 -4 -4 -2 -1 -2 -2 -1 -1 -1 -1 -1 -0 -0 0 -0 -0 -1 -1 -1 -1 -1 -0 -1 -1 -2 -2 -3 -3 -3 -3 -3 -4 -4 -3 -4 -4 -4 -4 -4 -4 -4
-3 -4 -4 -5 -4 -3 -2 -2 -2 -2 -1 -1 -1 -0 -0 0 1 0 -0 -1 -1 -1 -1 -1 -1 -1 -1 -2 -2 -2 -3 -3 -3 -3 -4 -4 -4 -4 -4 -4 -4 -4 -4 -4
-3 -3 -3 -3 -2 -2 -2 -2 -2 -2 -1 -1 -1 -0 0 0 0 0 0 -0 -1 -1 -2 -1 -2 -2 -2 -2 -3 -3 -3 -3 -4 -4 -4 -4 -4 -3 -4 -4 -4 -4 -4 -4
-3 -3 -3 -3 -2 -2 -2 -2 -2 -2 -2 -1 -1 -1 -0 0 0 1 0 0 -1 -2 -2 -2 -2 -2 -2 -2 -2 -3 -3 -3 -3 -3 -3 -3 -4 -4 -4 -4 -3 -3 -4 -4
-3 -3 -3 -3 -2 -2 -2 -2 -2 -2 -1 -1 -1 -1 -1 -0 0 0 0 0 -1 -2 -2 -3 -2 -2 -2 -3 -2 -3 -3 -3 -3 -3 -3 -4 -4 -4 -4 -4 -4 -4 -3 -4
-3 -3 -3 -3 -3 -2 -1 -2 -2 -2 -2 -2 -1 -1 -1 -0 -0 0 0 0 -1 -2 -2 -3 -3 -3 -3 -4 -3 -3 -3 -3 -3 -3 -3 -4 -4 -4 -4 -4 -4 -4 -4 -4
Height
3041 3045 3047 3054 3062 3066 3069 3072 3075 3078 3079 3078 3077 3074 3076 3080 3079 3081 3083 3085 3087 3090 3093 3094 3095 3097 3098 3099 3101 3103 3104 3106 3108 3109 3112 3113 3116 3120 3122 3125 3127 3128 3129 3131
3042 3045 3049 3056 3061 3065 3068 3070 3074 3076 3076 3076 3073 3069 3073 3075 3074 3077 3077 3079 3080 3082 3083 3084 3085 3085 3086 3089 3089 3092 3096 3098 3099 3101 3105 3105 3109 3110 3114 3117 3119 3121 3122 3123
3041 3045 3050 3055 3060 3063 3067 3069 3072 3074 3075 3074 3070 3065 3067 3070 3070 3071 3072 3072 3074 3074 3073 3075 3076 3077 3078 3078 3080 3081 3083 3086 3090 3091 3095 3096 3098 3100 3101 3105 3110 3114 3115 3116
3041 3045 3048 3052 3058 3061 3064 3068 3070 3072 3073 3072 3072 3067 3063 3065 3066 3064 3065 3066 3067 3068 3068 3068 3069 3069 3068 3071 3074 3075 3076 3077 3079 3081 3082 3085 3088 3090 3093 3098 3102 3105 3107 3108
3041 3044 3048 3051 3055 3058 3063 3066 3069 3070 3070 3070 3069 3070 3060 3059 3060 3060 3061 3062 3062 3063 3063 3064 3064 3063 3063 3064 3064 3064 3068 3070 3072 3073 3073 3075 3077 3080 3082 3086 3089 3093 3096 3099
3042 3044 3047 3050 3053 3057 3062 3066 3068 3068 3069 3069 3066 3068 3058 3058 3059 3058 3058 3060 3060 3060 3061 3060 3059 3059 3059 3058 3057 3057 3058 3059 3062 3064 3065 3066 3068 3070 3072 3075 3077 3080 3084 3087
3044 3046 3049 3051 3054 3058 3061 3065 3067 3069 3070 3068 3065 3066 3056 3057 3057 3056 3056 3058 3057 3056 3056 3055 3054 3054 3054 3054 3053 3052 3052 3052 3053 3054 3054 3056 3058 3060 3062 3065 3067 3069 3072 3075
3044 3050 3049 3052 3056 3058 3060 3063 3064 3067 3069 3067 3064 3059 3055 3053 3055 3055 3055 3055 3054 3052 3051 3050 3049 3048 3047 3046 3046 3045 3045 3046 3045 3046 3047 3048 3049 3049 3051 3053 3056 3059 3062 3066
3043 3047 3050 3052 3054 3058 3059 3061 3064 3064 3065 3066 3060 3056 3054 3053 3054 3053 3053 3051 3050 3049 3047 3044 3043 3041 3039 3038 3038 3037 3036 3037 3038 3038 3038 3039 3040 3040 3041 3043 3044 3047 3051 3055
3043 3047 3049 3051 3053 3056 3056 3061 3062 3061 3067 3067 3058 3053 3051 3052 3052 3052 3051 3048 3045 3044 3041 3038 3034 3030 3028 3026 3026 3026 3025 3025 3026 3027 3028 3029 3031 3032 3032 3033 3034 3036 3040 3044
3044 3046 3049 3050 3051 3052 3055 3056 3058 3060 3062 3064 3064 3051 3050 3050 3051 3050 3047 3043 3040 3036 3032 3026 3022 3017 3013 3011 3011 3011 3012 3013 3014 3015 3017 3018 3020 3022 3023 3023 3025 3027 3029 3033
3042 3044 3046 3049 3049 3050 3051 3054 3057 3059 3061 3060 3061 3051 3048 3049 3049 3045 3040 3037 3035 3030 3024 3018 3013 3009 3005 3003 3002 3001 3000 3003 3004 3005 3007 3009 3010 3012 3013 3015 3016 3016 3018 3022
3042 3044 3046 3049 3052 3050 3050 3051 3054 3056 3056 3057 3060 3049 3047 3047 3044 3040 3035 3032 3028 3024 3017 3011 3007 3004 2999 2996 2994 2994 2992 2992 2993 2994 2997 2999 3002 3003 3005 3006 3007 3008 3009 3011
3041 3042 3044 3046 3046 3046 3046 3047 3050 3052 3053 3051 3047 3044 3045 3042 3038 3035 3031 3028 3024 3017 3010 3005 3001 2996 2993 2993 2991 2989 2988 2988 2987 2986 2987 2991 2992 2995 2997 2998 2999 3000 3001 3003
3041 3042 3043 3044 3044 3044 3044 3044 3046 3046 3047 3046 3044 3043 3040 3038 3034 3031 3027 3024 3018 3011 3005 3002 2995 2991 2989 2988 2987 2986 2985 2983 2981 2981 2981 2981 2985 2987 2990 2991 2991 2993 2995 2998
3039 3041 3042 3041 3040 3040 3039 3041 3042 3042 3042 3041 3042 3039 3038 3036 3034 3031 3026 3021 3014 3008 3002 2997 2992 2988 2986 2984 2983 2981 2979 2977 2975 2975 2975 2976 2978 2981 2983 2984 2985 2988 2991 2993
3039 3040 3041 3039 3038 3038 3036 3034 3033 3035 3037 3039 3038 3038 3036 3035 3032 3029 3024 3018 3010 3004 2998 2994 2990 2986 2984 2982 2979 2976 2974 2973 2973 2971 2970 2972 2972 2974 2976 2978 2981 2983 2986 2988
3037 3039 3040 3038 3038 3039 3032 3032 3032 3033 3035 3035 3036 3035 3034 3032 3029 3026 3021 3016 3010 3003 2998 2993 2989 2985 2982 2980 2978 2976 2973 2972 2971 2970 2969 2968 2968 2969 2971 2974 2977 2979 2981 2982
3036 3037 3038 3038 3037 3032 3029 3030 3031 3033 3034 3034 3033 3032 3030 3029 3027 3024 3020 3015 3011 3004 2997 2993 2988 2984 2981 2978 2976 2974 2971 2970 2970 2967 2966 2965 2966 2967 2969 2972 2973 2974 2976 2981
3033 3035 3038 3037 3036 3032 3029 3028 3029 3030 3031 3031 3030 3029 3027 3026 3023 3022 3019 3016 3012 3006 3000 2996 2989 2984 2982 2978 2974 2972 2969 2968 2966 2965 2963 2963 2964 2965 2966 2968 2971 2973 2975 2977
3029 3031 3032 3034 3033 3028 3027 3026 3027 3030 3034 3029 3028 3026 3025 3022 3021 3019 3017 3015 3012 3008 3003 3000 2995 2990 2985 2981 2976 2972 2970 2970 2968 2967 2966 2966 2966 2967 2969 2971 2972 2974 2977 2979
3024 3027 3028 3030 3030 3026 3024 3026 3027 3029 3027 3026 3025 3023 3021 3019 3018 3016 3015 3013 3012 3009 3005 3002 2999 2995 2991 2987 2984 2981 2979 2977 2976 2975 2974 2974 2973 2974 2975 2977 2978 2980 2982 2983
3022 3021 3022 3023 3021 3021 3022 3023 3023 3024 3024 3023 3022 3020 3017 3016 3015 3015 3013 3012 3011 3009 3006 3003 3001 2998 2995 2992 2988 2987 2985 2983 2981 2980 2980 2980 2980 2980 2981 2982 2982 2983 2984 2985
3015 3017 3017 3018 3018 3019 3020 3020 3020 3020 3020 3020 3019 3017 3015 3013 3013 3012 3011 3010 3009 3008 3006 3004 3002 2999 2997 2995 2993 2990 2989 2987 2986 2986 2985 2985 2985 2985 2985 2985 2985 2985 2985 2985
3012 3013 3012 3012 3013 3014 3015 3016 3015 3015 3015 3015 3015 3014 3012 3011 3010 3009 3009 3008 3007 3006 3006 3004 3002 3000 2998 2996 2995 2993 2992 2991 2990 2989 2988 2988 2988 2987 2987 2987 2986 2986 2985 2984
3008 3007 3007 3006 3007 3007 3009 3009 3008 3009 3009 3010 3011 3011 3010 3008 3007 3006 3006 3006 3005 3004 3003 3003 3002 3000 2999 2997 2996 2994 2994 2993 2993 2992 2991 2990 2990 2989 2989 2988 2987 2986 2984 2983
Wind_Speed
34 30 34 33 23 10 11 12 15 14 18 22 27 32 31 27 29 30 29 27 26 26 27 32 36 44 49 54 51 48 46 45 44 43 42 42 40 36 36 33 31 31 31 30
32 29 27 21 23 22 14 10 11 10 14 19 27 34 31 29 29 28 28 27 24 25 27 29 32 35 40 40 43 53 55 51 47 46 46 47 44 44 42 38 34 32 33 33
24 19 21 19 20 23 17 14 11 14 17 20 24 31 24 19 22 23 21 22 20 19 27 29 30 31 34 38 38 41 45 50 58 59 55 55 51 49 49 48 41 38 36 37
21 11 22 21 22 23 23 15 16 12 9 6 9 8 22 18 14 12 14 20 21 15 11 13 16 19 25 34 39 38 41 42 43 42 51 58 59 58 54 51 46 42 40 42
6 9 12 16 29 23 17 12 11 10 10 12 13 6 10 11 6 8 11 10 10 15 15 18 21 21 20 20 21 25 38 44 41 42 43 44 49 55 60 58 54 53 46 43
11 14 12 15 16 18 8 9 8 11 10 2 4 5 6 2 6 10 6 6 7 8 14 17 18 19 19 19 18 16 19 20 29 39 45 46 43 42 43 47 47 49 47 45
14 12 8 8 9 8 8 6 1 2 1 4 2 4 9 3 8 8 7 8 13 17 16 17 20 21 22 23 24 24 23 19 20 23 26 33 43 49 49 44 43 43 45 47
9 5 11 12 11 7 13 10 3 4 1 3 5 7 2 3 12 12 10 13 14 18 19 20 22 24 26 27 28 30 30 25 24 22 23 24 26 28 29 31 49 53 46 43
7 5 13 11 11 10 11 11 12 1 1 1 4 7 10 11 11 11 10 14 19 23 25 27 28 30 31 33 33 35 36 35 31 32 32 33 31 31 30 32 33 36 48 48
8 6 11 11 11 12 7 6 6 5 2 3 5 8 5 5 4 7 14 19 25 30 33 34 37 41 43 45 44 43 43 44 43 40 40 38 35 32 32 29 32 33 35 41
6 6 8 10 8 13 14 13 5 5 2 3 2 4 3 2 6 15 23 27 27 31 34 34 33 35 35 35 36 41 45 42 43 41 36 34 31 31 29 29 28 33 33 35
10 5 5 10 6 8 12 12 14 5 5 4 2 7 2 3 12 28 26 22 26 28 33 30 32 34 36 34 29 28 32 47 41 39 34 33 32 31 31 31 32 30 35 34
10 3 5 2 8 12 12 17 16 13 4 8 4 4 2 15 29 20 21 23 29 33 29 28 25 29 25 24 26 27 24 33 39 40 37 33 30 28 31 31 34 31 32 34
10 7 4 5 0 2 9 15 18 18 8 8 19 24 16 19 15 18 20 23 29 32 27 27 25 23 20 20 21 15 12 18 35 41 40 39 33 37 31 30 32 32 30 33
14 6 8 11 12 14 11 8 15 25 23 13 17 23 19 15 21 20 23 27 29 31 24 21 23 20 16 13 15 14 16 16 16 17 21 23 32 38 34 29 27 27 26 29
16 6 4 8 10 13 17 18 21 20 19 25 21 18 10 13 15 20 22 27 26 29 25 20 19 17 12 13 14 17 19 21 22 22 21 19 18 19 24 24 23 23 21 26
12 9 4 3 3 6 14 10 20 18 15 13 18 8 10 10 14 19 22 24 27 28 24 17 16 16 13 14 15 17 18 19 18 15 13 14 13 16 19 18 18 16 19 21
8 10 8 5 5 1 2 4 6 2 5 8 4 7 11 12 14 18 23 24 26 30 21 20 15 13 15 13 12 14 15 13 11 12 9 11 10 13 14 13 15 17 24 17
12 11 3 2 5 12 9 7 3 2 1 4 8 11 11 12 12 15 21 20 23 26 20 17 15 13 14 13 12 13 11 11 12 12 13 12 8 7 6 15 15 12 15 18
12 12 12 4 3 3 1 8 2 6 6 2 11 14 12 12 11 12 16 17 20 20 23 24 18 12 12 14 15 12 11 12 13 9 3 4 4 7 13 13 16 10 10 10
17 15 16 14 7 8 8 5 3 2 3 9 11 13 13 12 10 9 13 13 16 17 17 16 15 17 19 21 22 16 13 10 10 12 13 10 13 16 14 14 16 16 14 12
13 12 11 12 8 10 8 10 4 5 9 11 12 13 12 11 9 9 11 10 11 14 13 12 13 13 12 16 20 22 22 23 23 23 23 22 22 20 18 15 14 11 9 7
12 12 7 11 4 5 9 10 9 10 12 13 14 14 12 10 9 9 9 9 8 9 9 10 9 12 11 12 15 14 14 16 16 17 17 17 16 14 13 11 10 9 8 6
15 14 19 16 12 15 14 16 16 16 16 14 14 15 13 10 9 9 8 10 7 4 7 5 8 5 8 7 9 10 12 13 13 14 14 13 12 11 10 9 8 7 7 7
14 15 18 23 22 22 21 20 22 21 19 18 14 15 14 11 10 9 8 9 10 5 5 6 4 2 3 7 7 8 8 9 10 11 10 10 10 9 8 8 7 7 8 10
15 17 19 23 23 27 23 21 24 26 21 19 16 15 15 13 10 10 9 9 10 7 9 5 4 4 3 3 5 5 6 6 6 7 7 7 6 6 6 6 7 8 10 13
Wind_Direction
184 181 196 200 190 186 202 211 231 236 245 256 256 264 262 262 262 265 270 269 265 261 256 254 255 252 253 250 248 252 256 258 261 260 262 263 261 258 259 258 256 253 250 247
175 193 197 200 205 206 200 215 230 235 249 263 266 269 268 267 271 272 272 273 269 260 255 251 250 250 249 251 251 250 250 251 250 253 257 261 262 263 264 261 257 258 255 249
180 196 203 195 197 208 208 212 229 256 267 271 285 290 283 271 270 274 275 272 268 271 257 255 254 250 249 249 249 250 253 253 251 256 251 253 254 256 260 264 258 258 256 254
196 168 193 193 196 203 209 218 240 253 281 282 305 291 289 287 276 264 267 256 251 253 260 242 245 252 251 250 250 254 251 254 255 253 251 249 251 254 256 259 263 263 264 257
165 200 228 201 197 200 212 203 230 261 283 294 285 268 302 302 290 243 237 248 242 247 262 260 260 258 263 264 254 249 250 253 256 257 256 253 253 253 254 256 258 257 255 255
164 160 181 183 178 176 176 215 254 275 278 278 264 220 290 117 149 126 158 191 211 260 272 265 265 263 261 261 259 254 243 243 253 257 258 257 257 258 256 255 256 253 251 252
144 141 136 165 171 186 202 209 302 332 57 219 177 245 235 228 206 202 287 275 288 293 283 274 266 266 269 271 270 263 255 249 245 247 251 258 259 257 255 256 257 253 250 251
152 149 169 175 190 203 203 205 203 220 205 287 234 243 250 239 223 248 287 293 292 291 290 284 277 273 271 270 274 275 267 263 262 257 255 256 256 259 264 266 255 254 257 257
153 124 185 181 199 203 204 211 220 147 18 350 257 271 269 258 243 274 297 304 295 291 285 279 273 274 273 269 271 271 270 265 257 255 253 256 261 265 273 271 264 258 254 255
170 140 188 201 205 209 210 191 184 192 117 265 277 277 242 174 195 292 311 301 289 292 292 286 279 276 272 270 267 265 262 261 259 255 254 257 262 264 270 272 259 250 251 249
211 200 176 196 224 228 216 218 193 167 191 152 297 278 194 228 321 318 315 309 313 314 309 300 299 297 292 287 272 262 252 256 255 254 258 257 254 261 268 272 260 248 244 246
197 178 165 203 229 229 226 238 220 207 187 170 221 279 227 148 326 320 310 307 313 319 319 310 300 303 296 290 292 285 269 251 256 255 252 253 257 261 266 268 260 252 240 238
198 187 142 188 236 227 223 223 220 223 197 215 175 256 243 316 316 309 310 316 319 318 320 312 309 301 294 295 297 295 282 258 247 246 247 245 250 259 268 268 259 257 246 236
213 228 220 194 6 232 219 235 224 223 208 221 236 279 319 323 325 332 329 329 321 324 324 321 321 316 288 284 290 298 307 278 252 242 240 247 248 257 271 269 260 256 249 242
216 239 248 253 268 269 259 253 225 225 235 247 279 296 322 343 340 332 327 325 331 335 326 321 325 327 280 280 283 290 286 284 293 283 281 265 256 261 266 265 257 254 248 237
201 230 290 286 260 261 263 253 244 247 248 260 281 299 347 341 337 330 328 329 336 338 332 326 331 327 289 274 279 281 280 284 283 282 281 274 267 263 259 258 246 242 242 233
207 236 297 279 291 278 281 273 242 243 259 270 267 321 332 337 328 328 336 336 349 342 338 330 327 328 303 282 281 281 281 283 293 291 270 252 249 251 251 246 239 245 243 227
212 225 265 291 308 303 190 122 90 200 244 256 292 333 324 327 330 338 345 354 354 350 343 332 324 322 314 317 314 314 307 300 286 290 295 279 270 256 243 230 237 234 242 241
217 227 243 269 264 284 276 223 220 313 356 143 342 335 329 310 317 334 349 0 5 359 352 354 344 330 324 308 299 290 290 295 292 299 299 289 245 270 239 241 227 254 231 233
215 223 228 208 262 255 219 184 184 318 157 259 332 335 327 305 307 327 343 358 2 14 33 23 13 350 337 331 323 321 314 306 311 305 300 184 209 248 270 245 226 200 176 158
211 224 227 234 256 272 272 223 230 243 190 315 318 326 324 319 308 311 328 343 353 8 10 13 26 40 54 56 53 55 54 57 71 78 82 102 102 108 117 116 109 101 102 103
206 206 206 216 223 257 219 205 213 311 293 301 316 323 327 322 303 304 313 324 338 360 8 20 28 35 46 63 71 72 77 80 83 85 86 87 86 88 91 92 91 92 87 85
216 213 211 217 243 201 181 206 277 298 301 305 314 323 322 312 297 295 306 311 313 340 0 18 12 31 48 62 70 69 77 82 82 81 82 84 83 84 83 82 78 70 62 49
224 225 233 251 249 246 242 256 270 283 285 300 307 320 316 308 288 287 298 303 298 299 342 348 1 357 33 42 45 57 52 64 74 77 76 75 74 71 70 67 60 49 35 14
237 239 248 257 262 260 258 257 259 266 275 281 290 310 314 307 280 276 283 290 290 264 270 299 325 337 358 21 28 42 50 48 57 58 59 62 61 58 54 47 35 21 5 350
250 263 256 265 267 265 271 273 257 254 259 265 268 294 303 301 278 268 270 276 280 263 239 261 266 243 278 329 3 30 43 41 45 58 59 52 43 36 29 18 6 354 343 334